TimeMST,TemperatureF,Dew PointF,Humidity,Sea Level PressureIn,VisibilityMPH,Wind Direction,Wind SpeedMPH,Gust SpeedMPH,PrecipitationIn,Events,Conditions,WindDirDegrees,DateUTC
12:55 AM,69.8,64.4,83,29.96,10.0,East,3.5,-,N/A,,Mostly Cloudy,90,2013-08-26 07:55:00
1:55 AM,69.8,66.2,88,29.97,10.0,Calm,Calm,-,N/A,,Mostly Cloudy,0,2013-08-26 08:55:00
2:55 AM,69.8,64.4,83,29.97,10.0,Calm,Calm,-,N/A,,Mostly Cloudy,0,2013-08-26 09:55:00
3:55 AM,69.8,64.4,83,29.97,10.0,Calm,Calm,-,N/A,,Mostly Cloudy,0,2013-08-26 10:55:00
4:55 AM,69.8,64.4,83,29.98,10.0,Calm,Calm,-,N/A,,Mostly Cloudy,0,2013-08-26 11:55:00
5:55 AM,69.8,64.4,83,29.98,10.0,Calm,Calm,-,N/A,,Mostly Cloudy,0,2013-08-26 12:55:00
6:55 AM,71.6,64.4,78,30.01,10.0,Calm,Calm,-,N/A,,Mostly Cloudy,0,2013-08-26 13:55:00
7:55 AM,73.4,64.4,73,30.01,10.0,Calm,Calm,-,N/A,,Scattered Clouds,0,2013-08-26 14:55:00
8:55 AM,78.8,60.8,54,30.01,10.0,ESE,6.9,-,N/A,,Partly Cloudy,120,2013-08-26 15:55:00
9:55 AM,80.6,62.6,54,30.02,10.0,East,5.8,-,N/A,,Partly Cloudy,90,2013-08-26 16:55:00
10:55 AM,84.2,60.8,45,30.00,10.0,ESE,12.7,19.6,N/A,,Scattered Clouds,120,2013-08-26 17:55:00
11:55 AM,86.0,57.2,37,29.98,10.0,ESE,17.3,23.0,N/A,,Scattered Clouds,110,2013-08-26 18:55:00
12:55 PM,87.8,55.4,33,29.96,10.0,ESE,6.9,19.6,N/A,,Mostly Cloudy,110,2013-08-26 19:55:00
1:55 PM,89.6,53.6,29,29.93,10.0,SE,16.1,26.5,N/A,,Scattered Clouds,130,2013-08-26 20:55:00
2:55 PM,89.6,51.8,27,29.89,10.0,SE,16.1,25.3,N/A,,Scattered Clouds,130,2013-08-26 21:55:00
2:56 PM,89.6,53.6,29,29.87,10.0,SE,17.3,24.2,N/A,,Mostly Cloudy,140,2013-08-26 21:56:00
4:13 PM,86.0,57.2,37,30.07,10.0,ENE,12.7,20.7,N/A,,Mostly Cloudy,60,2013-08-26 23:13:00
4:56 PM,87.1,53.1,31,29.86,10.0,East,11.5,20.7,N/A,,Clear,90,2013-08-26 23:56:00
5:56 PM,86.0,50.0,29,29.88,10.0,ESE,11.5,-,N/A,,Partly Cloudy,120,2013-08-27 00:56:00
6:56 PM,82.9,54.0,37,29.89,10.0,Calm,Calm,-,N/A,,Mostly Cloudy,0,2013-08-27 01:56:00
7:56 PM,80.1,55.9,43,29.88,10.0,SW,3.5,-,N/A,,Scattered Clouds,230,2013-08-27 02:56:00
8:56 PM,75.9,60.1,58,29.90,10.0,West,9.2,-,N/A,,Partly Cloudy,260,2013-08-27 03:56:00
9:56 PM,75.0,57.9,55,29.90,10.0,WSW,8.1,-,N/A,,Clear,250,2013-08-27 04:56:00
10:55 PM,73.4,57.2,57,29.89,10.0,West,5.8,-,N/A,,Mostly Cloudy,270,2013-08-27 05:55:00
11:55 PM,71.6,59.0,64,29.90,10.0,West,9.2,-,N/A,,Mostly Cloudy,260,2013-08-27 06:55:00